sat.trackr.live / text

‹ back to catalog

STARLINK-1464

NORAD 45751 · 2020-038X

PAYLOAD ACTIVE UNKNOWN

§ Identity

Operator
Country
US
Launch date
2020-06-13
Launch site
AFETR
Launch vehicle
Mass (kg)
RCS (m²)

Purposes: comms

External: N2YO · Heavens-Above · Gunter

§ Orbital elements

Epoch: 2026-05-24T20:19:37.994592Z

Period
92.71 min
Inclination
53.0459°
Eccentricity
0.0003812
Mean motion
15.53221757 rev/d
Perigee alt
404.7 km
Apogee alt
409.9 km
Semi-major
6,785.5 km
B*
6.3578e-4
RAAN
199.9002°
Arg perigee
358.0620°
Mean anomaly
2.0374°
Rev number
32,845

§ Raw data

STARLINK-14641 45751U 20038X   26144.84696753  .00040413  00000+0  63578-3 0  99932 45751  53.0459 199.9002 0003812 358.0620   2.0374 15.53221757328454

JSON: /api/v1/satellites/45751 · /tle

For live sub-satellite position, see the globe view (requires WebGL).

§ Visibility from observer

Set your observer location to see the next 7 days of passes ≥ 10°. The values pass through the URL so the page stays shareable.

No JS? Fill the form by hand. The geolocation button needs JavaScript.